Date,TemperatureHighF,TemperatureAvgF,TemperatureLowF,DewpointHighF,DewpointAvgF,DewpointLowF,HumidityHigh,HumidityAvg,HumidityLow,PressureMaxIn,PressureMinIn,WindSpeedMaxMPH,WindSpeedAvgMPH,GustSpeedMaxMPH,PrecipitationSumIn
2013-10-1,89,65,54,68,44,-100,97,62,40,29.92,29.84,12,-103,17,0.00
2013-10-2,87,68,69,72,48,-100,95,66,55,29.95,29.82,8,-122,17,0.00
2013-10-3,90,71,72,73,48,-100,89,60,51,29.88,29.74,13,-123,21,0.00
2013-10-4,88,71,72,71,51,-100,88,63,53,29.86,29.77,12,-100,20,0.00
2013-10-5,77,51,44,68,27,-100,87,59,40,30.13,29.81,17,-143,21,0.03
2013-10-6,71,49,40,41,36,30,92,67,22,30.11,30.06,4,0,7,0.00
2013-10-7,80,52,41,45,17,-100,88,42,18,30.20,30.09,7,-145,9,0.00
2013-10-8,80,55,43,52,24,-100,94,48,27,30.13,29.99,9,-146,13,0.00
2013-10-9,83,57,47,56,28,-100,97,51,35,30.07,29.96,9,-154,14,0.00
2013-10-10,83,75,60,64,59,55,89,59,44,30.04,29.84,12,5,20,0.00
2013-10-11,87,66,64,69,45,-100,91,63,51,29.87,29.77,10,-122,20,0.00
2013-10-12,84,67,65,71,47,-100,97,66,51,30.08,29.84,10,-112,13,0.00
2013-10-13,74,57,59,69,38,-100,100,74,81,30.21,30.08,5,-166,9,0.00
2013-10-14,70,51,65,70,25,-100,98,71,84,30.15,29.89,8,-250,14,1.02
2013-10-15,71,43,52,70,16,-100,98,68,81,30.12,29.88,13,-250,18,0.33
2013-10-16,63,45,44,53,19,-100,98,60,51,30.18,30.06,10,-173,14,0.01
2013-10-17,59,32,38,47,1,-100,98,63,64,30.15,30.09,3,-288,8,0.00
2013-10-21,50,43,39,42,39,37,93,87,75,30.17,30.11,0,0,0,0.00
2013-10-22,76,56,37,49,44,35,97,69,37,30.19,30.03,8,1,13,0.00
2013-10-23,79,52,43,52,23,-100,97,52,33,30.15,30.01,6,-167,13,0.00
2013-10-24,67,48,48,47,20,-100,84,52,41,30.34,30.03,10,-156,15,0.00
2013-10-25,64,45,42,44,20,-100,80,54,48,30.45,30.27,6,-146,16,0.00
2013-10-26,62,48,49,59,31,-100,98,76,77,30.26,30.07,4,-145,9,0.86
2013-10-27,67,48,53,59,29,-100,98,76,75,30.15,30.01,5,-174,8,0.01
2013-10-28,68,59,46,65,57,46,98,95,86,30.11,30.01,7,1,11,0.01
2013-10-29,76,70,66,70,67,64,94,88,80,30.05,29.93,12,5,17,0.01
2013-10-30,71,68,64,69,66,64,98,94,88,29.97,29.76,13,5,19,0.11
2013-10-31,68,62,51,66,53,43,98,73,43,29.86,29.63,10,3,19,0.02